Time,TemperatureF,DewpointF,PressureIn,WindDirection,WindDirectionDegrees,WindSpeedMPH,WindSpeedGustMPH,Humidity,HourlyPrecipIn,Conditions,Clouds,dailyrainin,SoftwareType,DateUTC
2013-09-01 00:01:00,74.4,73.2,29.99,East,91,0.0,0.0,96,0.00,,,0.00,Wunderground v.1.15,2013-09-01 04:01:00,
2013-09-01 00:02:00,74.4,73.2,29.99,East,90,0.0,0.0,96,0.00,,,0.00,Wunderground v.1.15,2013-09-01 04:02:00,
2013-09-01 00:03:00,74.4,73.2,29.99,East,91,0.0,0.0,96,0.00,,,0.00,Wunderground v.1.15,2013-09-01 04:03:00,
2013-09-01 00:04:00,74.4,73.2,29.99,East,91,0.0,0.0,96,0.00,,,0.00,Wunderground v.1.15,2013-09-01 04:04:00,
2013-09-01 00:10:00,74.3,73.1,29.99,East,91,0.0,0.0,96,0.00,,,0.00,Wunderground v.1.15,2013-09-01 04:10:00,
2013-09-01 00:14:00,74.3,73.1,29.99,East,91,0.0,0.0,96,0.00,,,0.00,Wunderground v.1.15,2013-09-01 04:14:00,
2013-09-01 00:20:00,74.4,73.2,29.99,East,91,0.0,0.0,96,0.00,,,0.00,Wunderground v.1.15,2013-09-01 04:20:00,
2013-09-01 00:24:00,74.5,73.3,29.98,East,91,0.0,0.0,96,0.00,,,0.00,Wunderground v.1.15,2013-09-01 04:24:00,
2013-09-01 00:29:00,74.5,73.3,29.98,East,90,0.0,0.0,96,0.00,,,0.00,Wunderground v.1.15,2013-09-01 04:29:00,
2013-09-01 00:35:00,74.5,73.3,29.99,East,91,0.0,0.0,96,0.00,,,0.00,Wunderground v.1.15,2013-09-01 04:35:00,
2013-09-01 00:41:00,74.6,73.4,29.99,East,91,0.0,0.0,96,0.00,,,0.00,Wunderground v.1.15,2013-09-01 04:41:00,
2013-09-01 00:47:00,74.6,73.4,29.99,East,91,0.0,0.0,96,0.00,,,0.00,Wunderground v.1.15,2013-09-01 04:47:00,
2013-09-01 00:53:00,74.5,73.3,29.99,East,90,0.0,0.0,96,0.00,,,0.00,Wunderground v.1.15,2013-09-01 04:53:00,
2013-09-01 00:59:00,74.4,73.2,29.99,East,90,0.0,0.0,96,0.00,,,0.00,Wunderground v.1.15,2013-09-01 04:59:00,
2013-09-01 01:04:00,74.5,73.3,29.99,East,91,0.0,0.0,96,0.00,,,0.00,Wunderground v.1.15,2013-09-01 05:04:00,
2013-09-01 01:10:00,74.6,73.4,29.99,East,91,0.0,0.0,96,0.00,,,0.00,Wunderground v.1.15,2013-09-01 05:10:00,
2013-09-01 01:16:00,74.4,73.2,29.99,East,90,0.0,0.0,96,0.00,,,0.00,Wunderground v.1.15,2013-09-01 05:16:00,
2013-09-01 01:22:00,74.4,73.2,29.99,East,90,0.0,0.0,96,0.00,,,0.00,Wunderground v.1.15,2013-09-01 05:22:00,
2013-09-01 01:28:00,74.6,73.7,29.99,East,91,0.0,0.0,97,0.00,,,0.00,Wunderground v.1.15,2013-09-01 05:28:00,
2013-09-01 01:34:00,74.8,73.9,29.99,East,91,0.0,0.0,97,0.00,,,0.00,Wunderground v.1.15,2013-09-01 05:34:00,
2013-09-01 01:40:00,74.9,73.7,29.98,East,90,0.0,0.0,96,0.00,,,0.00,Wunderground v.1.15,2013-09-01 05:40:00,
2013-09-01 01:46:00,74.9,73.7,29.98,East,91,0.0,0.0,96,0.00,,,0.00,Wunderground v.1.15,2013-09-01 05:46:00,
2013-09-01 01:52:00,74.8,73.6,29.98,East,91,0.0,0.0,96,0.00,,,0.00,Wunderground v.1.15,2013-09-01 05:52:00,
2013-09-01 01:58:00,74.8,73.6,29.98,East,90,0.0,0.0,96,0.00,,,0.00,Wunderground v.1.15,2013-09-01 05:58:00,
2013-09-01 02:04:00,74.7,73.5,29.98,East,90,0.0,0.0,96,0.00,,,0.00,Wunderground v.1.15,2013-09-01 06:04:00,
2013-09-01 02:09:00,74.7,73.5,29.98,East,91,0.0,0.0,96,0.00,,,0.00,Wunderground v.1.15,2013-09-01 06:09:00,
2013-09-01 02:14:00,74.7,73.8,29.98,East,90,0.0,0.0,97,0.00,,,0.00,Wunderground v.1.15,2013-09-01 06:14:00,
2013-09-01 02:19:00,74.8,73.9,29.98,East,90,0.0,0.0,97,0.00,,,0.00,Wunderground v.1.15,2013-09-01 06:19:00,
2013-09-01 02:24:00,74.9,74.0,29.98,East,91,0.0,0.0,97,0.00,,,0.00,Wunderground v.1.15,2013-09-01 06:24:00,
2013-09-01 02:29:00,75.0,74.1,29.98,East,90,0.0,0.0,97,0.00,,,0.00,Wunderground v.1.15,2013-09-01 06:29:00,
2013-09-01 02:34:00,74.9,74.0,29.97,East,91,0.0,0.0,97,0.00,,,0.00,Wunderground v.1.15,2013-09-01 06:34:00,
2013-09-01 02:39:00,74.8,73.6,29.97,East,91,0.0,0.0,96,0.00,,,0.00,Wunderground v.1.15,2013-09-01 06:39:00,
2013-09-01 02:44:00,74.7,73.8,29.97,East,90,0.0,0.0,97,0.00,,,0.00,Wunderground v.1.15,2013-09-01 06:44:00,
2013-09-01 02:49:00,74.8,73.9,29.97,East,90,0.0,0.0,97,0.00,,,0.00,Wunderground v.1.15,2013-09-01 06:49:00,
2013-09-01 02:54:00,74.8,73.9,29.97,East,90,0.0,0.0,97,0.00,,,0.00,Wunderground v.1.15,2013-09-01 06:54:00,
2013-09-01 02:59:00,75.0,74.1,29.97,East,90,0.0,0.0,97,0.00,,,0.00,Wunderground v.1.15,2013-09-01 06:59:00,
2013-09-01 03:04:00,74.9,74.0,29.97,East,91,0.0,0.0,97,0.00,,,0.00,Wunderground v.1.15,2013-09-01 07:04:00,
2013-09-01 03:09:00,74.9,74.0,29.96,ESE,104,0.0,0.0,97,0.00,,,0.00,Wunderground v.1.15,2013-09-01 07:09:00,
2013-09-01 03:14:00,74.9,74.0,29.96,ESE,104,0.0,0.0,97,0.00,,,0.00,Wunderground v.1.15,2013-09-01 07:14:00,
2013-09-01 03:19:00,74.9,74.0,29.96,ESE,104,0.0,0.0,97,0.00,,,0.00,Wunderground v.1.15,2013-09-01 07:19:00,
2013-09-01 03:24:00,74.7,73.8,29.96,ESE,104,0.0,0.0,97,0.00,,,0.00,Wunderground v.1.15,2013-09-01 07:24:00,
2013-09-01 03:29:00,74.7,73.8,29.96,ESE,105,0.0,0.0,97,0.00,,,0.00,Wunderground v.1.15,2013-09-01 07:29:00,
2013-09-01 03:34:00,74.8,73.9,29.96,ESE,104,0.0,0.0,97,0.00,,,0.00,Wunderground v.1.15,2013-09-01 07:34:00,
2013-09-01 03:39:00,75.0,74.1,29.95,ESE,105,0.0,0.0,97,0.00,,,0.00,Wunderground v.1.15,2013-09-01 07:39:00,
2013-09-01 03:44:00,75.2,74.3,29.96,ESE,104,0.0,0.0,97,0.00,,,0.00,Wunderground v.1.15,2013-09-01 07:44:00,
2013-09-01 03:49:00,75.1,74.2,29.96,ESE,104,0.0,0.0,97,0.00,,,0.00,Wunderground v.1.15,2013-09-01 07:49:00,
2013-09-01 03:54:00,74.9,74.0,29.96,ESE,104,0.0,0.0,97,0.00,,,0.00,Wunderground v.1.15,2013-09-01 07:54:00,
2013-09-01 03:59:00,74.8,73.9,29.96,ESE,104,0.0,0.0,97,0.00,,,0.00,Wunderground v.1.15,2013-09-01 07:59:00,
2013-09-01 04:04:00,74.8,73.9,29.96,ESE,104,0.0,0.0,97,0.00,,,0.00,Wunderground v.1.15,2013-09-01 08:04:00,
2013-09-01 04:09:00,74.8,73.9,29.96,ESE,104,0.0,0.0,97,0.00,,,0.00,Wunderground v.1.15,2013-09-01 08:09:00,
2013-09-01 04:14:00,74.7,73.8,29.96,ESE,104,0.0,0.0,97,0.00,,,0.00,Wunderground v.1.15,2013-09-01 08:14:00,
2013-09-01 04:19:00,74.7,73.8,29.96,ESE,105,0.0,0.0,97,0.00,,,0.00,Wunderground v.1.15,2013-09-01 08:19:00,
2013-09-01 04:24:00,74.7,73.8,29.96,ESE,104,0.0,0.0,97,0.00,,,0.00,Wunderground v.1.15,2013-09-01 08:24:00,
2013-09-01 04:29:00,74.7,73.8,29.96,ESE,104,0.0,0.0,97,0.00,,,0.00,Wunderground v.1.15,2013-09-01 08:29:00,
2013-09-01 04:34:00,74.6,73.7,29.96,ESE,105,0.0,0.0,97,0.00,,,0.00,Wunderground v.1.15,2013-09-01 08:34:00,
2013-09-01 04:39:00,74.7,73.8,29.96,ESE,105,0.0,0.0,97,0.00,,,0.00,Wunderground v.1.15,2013-09-01 08:39:00,
2013-09-01 04:44:00,74.8,73.9,29.96,ESE,104,0.0,0.0,97,0.00,,,0.00,Wunderground v.1.15,2013-09-01 08:44:00,
2013-09-01 04:49:00,74.8,73.9,29.96,ESE,105,0.0,0.0,97,0.00,,,0.00,Wunderground v.1.15,2013-09-01 08:49:00,
2013-09-01 04:54:00,74.9,74.0,29.96,ESE,104,0.0,0.0,97,0.00,,,0.00,Wunderground v.1.15,2013-09-01 08:54:00,
2013-09-01 04:59:00,75.0,74.4,29.96,ESE,105,0.0,0.0,98,0.00,,,0.00,Wunderground v.1.15,2013-09-01 08:59:00,
2013-09-01 05:04:00,75.1,74.2,29.96,ESE,104,0.0,0.0,97,0.00,,,0.00,Wunderground v.1.15,2013-09-01 09:04:00,
2013-09-01 05:09:00,75.0,74.1,29.96,ESE,105,0.0,0.0,97,0.00,,,0.00,Wunderground v.1.15,2013-09-01 09:09:00,
2013-09-01 05:14:00,75.0,74.1,29.97,ESE,104,0.0,0.0,97,0.00,,,0.00,Wunderground v.1.15,2013-09-01 09:14:00,
2013-09-01 05:19:00,75.0,74.1,29.97,ESE,105,0.0,0.0,97,0.00,,,0.00,Wunderground v.1.15,2013-09-01 09:19:00,
2013-09-01 05:24:00,74.9,74.0,29.96,ESE,105,0.0,0.0,97,0.00,,,0.00,Wunderground v.1.15,2013-09-01 09:24:00,
2013-09-01 05:29:00,74.8,73.9,29.96,ESE,105,0.0,0.0,97,0.00,,,0.00,Wunderground v.1.15,2013-09-01 09:29:00,
2013-09-01 05:34:00,74.8,73.9,29.96,ESE,105,0.0,0.0,97,0.00,,,0.00,Wunderground v.1.15,2013-09-01 09:34:00,
2013-09-01 05:39:00,75.0,74.4,29.97,ESE,105,0.0,0.0,98,0.00,,,0.00,Wunderground v.1.15,2013-09-01 09:39:00,
2013-09-01 05:44:00,75.0,74.4,29.97,ESE,104,0.0,0.0,98,0.00,,,0.00,Wunderground v.1.15,2013-09-01 09:44:00,
2013-09-01 05:49:00,75.0,74.1,29.97,ESE,105,0.0,0.0,97,0.00,,,0.00,Wunderground v.1.15,2013-09-01 09:49:00,
2013-09-01 05:54:00,75.1,74.5,29.97,ESE,104,0.0,0.0,98,0.00,,,0.00,Wunderground v.1.15,2013-09-01 09:54:00,
2013-09-01 05:59:00,74.9,74.0,29.97,ESE,105,0.0,0.0,97,0.00,,,0.00,Wunderground v.1.15,2013-09-01 09:59:00,
2013-09-01 06:04:00,74.9,74.0,29.97,ESE,105,0.0,0.0,97,0.00,,,0.00,Wunderground v.1.15,2013-09-01 10:04:00,
2013-09-01 06:09:00,74.9,74.0,29.97,ESE,104,0.0,0.0,97,0.00,,,0.00,Wunderground v.1.15,2013-09-01 10:09:00,
2013-09-01 06:14:00,74.8,73.9,29.97,ESE,104,0.0,0.0,97,0.00,,,0.00,Wunderground v.1.15,2013-09-01 10:14:00,
2013-09-01 06:19:00,74.6,73.7,29.97,ESE,105,0.0,0.0,97,0.00,,,0.00,Wunderground v.1.15,2013-09-01 10:19:00,
2013-09-01 06:24:00,74.7,73.8,29.97,ESE,104,0.0,0.0,97,0.00,,,0.00,Wunderground v.1.15,2013-09-01 10:24:00,
2013-09-01 06:29:00,74.8,73.9,29.97,ESE,104,0.0,0.0,97,0.00,,,0.00,Wunderground v.1.15,2013-09-01 10:29:00,
2013-09-01 06:34:00,74.8,73.9,29.96,ESE,104,0.0,0.0,97,0.00,,,0.00,Wunderground v.1.15,2013-09-01 10:34:00,
2013-09-01 06:39:00,74.7,73.8,29.97,ESE,105,0.0,0.0,97,0.00,,,0.00,Wunderground v.1.15,2013-09-01 10:39:00,
2013-09-01 06:44:00,74.8,73.9,29.97,ESE,105,0.0,0.0,97,0.00,,,0.00,Wunderground v.1.15,2013-09-01 10:44:00,
2013-09-01 06:49:00,74.7,73.8,29.97,ESE,104,0.0,0.0,97,0.00,,,0.00,Wunderground v.1.15,2013-09-01 10:49:00,
2013-09-01 06:54:00,74.6,73.7,29.97,ESE,105,0.0,0.0,97,0.00,,,0.00,Wunderground v.1.15,2013-09-01 10:54:00,
2013-09-01 06:59:00,74.8,74.2,29.97,ESE,105,0.0,0.0,98,0.00,,,0.00,Wunderground v.1.15,2013-09-01 10:59:00,
2013-09-01 07:04:00,74.8,73.9,29.97,ESE,104,0.0,0.0,97,0.00,,,0.00,Wunderground v.1.15,2013-09-01 11:04:00,
2013-09-01 07:09:00,74.9,74.3,29.97,ESE,104,0.0,0.0,98,0.00,,,0.00,Wunderground v.1.15,2013-09-01 11:09:00,
2013-09-01 07:14:00,74.9,74.0,29.97,ESE,105,0.0,0.0,97,0.00,,,0.00,Wunderground v.1.15,2013-09-01 11:14:00,
2013-09-01 07:19:00,74.9,74.3,29.97,ESE,104,0.0,0.0,98,0.00,,,0.00,Wunderground v.1.15,2013-09-01 11:19:00,
2013-09-01 07:24:00,75.0,74.4,29.97,ESE,105,0.0,0.0,98,0.00,,,0.00,Wunderground v.1.15,2013-09-01 11:24:00,
2013-09-01 07:29:00,75.1,74.5,29.98,ESE,105,0.0,0.0,98,0.00,,,0.00,Wunderground v.1.15,2013-09-01 11:29:00,
2013-09-01 07:34:00,75.2,74.6,29.98,ESE,104,0.0,0.0,98,0.00,,,0.00,Wunderground v.1.15,2013-09-01 11:34:00,
2013-09-01 07:39:00,75.4,74.8,29.97,ESE,104,0.0,0.0,98,0.00,,,0.00,Wunderground v.1.15,2013-09-01 11:39:00,
2013-09-01 07:44:00,75.6,75.0,29.97,ESE,105,0.0,0.0,98,0.00,,,0.00,Wunderground v.1.15,2013-09-01 11:44:00,
2013-09-01 07:49:00,75.9,75.3,29.98,ESE,104,0.0,0.0,98,0.00,,,0.00,Wunderground v.1.15,2013-09-01 11:49:00,
2013-09-01 07:54:00,76.1,75.5,29.97,ESE,105,0.0,0.0,98,0.00,,,0.00,Wunderground v.1.15,2013-09-01 11:54:00,
2013-09-01 07:59:00,76.4,75.8,29.97,ESE,104,0.0,0.0,98,0.00,,,0.00,Wunderground v.1.15,2013-09-01 11:59:00,
2013-09-01 08:04:00,76.8,76.2,29.97,ESE,104,0.0,0.0,98,0.00,,,0.00,Wunderground v.1.15,2013-09-01 12:04:00,
2013-09-01 08:09:00,77.0,76.4,29.97,ESE,105,0.0,0.0,98,0.00,,,0.00,Wunderground v.1.15,2013-09-01 12:09:00,
2013-09-01 08:14:00,77.5,76.9,29.97,ESE,105,0.0,0.0,98,0.00,,,0.00,Wunderground v.1.15,2013-09-01 12:14:00,
2013-09-01 08:19:00,77.8,77.2,29.98,ESE,104,0.0,0.0,98,0.00,,,0.00,Wunderground v.1.15,2013-09-01 12:19:00,
2013-09-01 08:24:00,77.7,76.8,29.98,ESE,104,0.0,1.0,97,0.00,,,0.00,Wunderground v.1.15,2013-09-01 12:24:00,
2013-09-01 08:29:00,77.6,76.7,29.97,ESE,104,0.0,1.0,97,0.00,,,0.00,Wunderground v.1.15,2013-09-01 12:29:00,
2013-09-01 08:34:00,77.8,77.2,29.97,ESE,105,0.0,0.0,98,0.00,,,0.00,Wunderground v.1.15,2013-09-01 12:34:00,
2013-09-01 08:39:00,78.0,77.4,29.97,ESE,104,0.0,0.0,98,0.00,,,0.00,Wunderground v.1.15,2013-09-01 12:39:00,
2013-09-01 08:44:00,78.2,77.6,29.98,ESE,104,0.0,0.0,98,0.00,,,0.00,Wunderground v.1.15,2013-09-01 12:44:00,
2013-09-01 08:49:00,78.5,77.9,29.98,ESE,104,0.0,0.0,98,0.00,,,0.00,Wunderground v.1.15,2013-09-01 12:49:00,
2013-09-01 08:54:00,78.8,77.9,29.98,ESE,104,0.0,0.0,97,0.00,,,0.00,Wunderground v.1.15,2013-09-01 12:54:00,
2013-09-01 08:59:00,78.9,78.0,29.97,ESE,105,0.0,0.0,97,0.00,,,0.00,Wunderground v.1.15,2013-09-01 12:59:00,
2013-09-01 09:04:00,79.3,78.7,29.97,ESE,105,0.0,0.0,98,0.00,,,0.00,Wunderground v.1.15,2013-09-01 13:04:00,
2013-09-01 09:09:00,79.8,78.9,29.98,ESE,104,0.0,0.0,97,0.00,,,0.00,Wunderground v.1.15,2013-09-01 13:09:00,
2013-09-01 09:14:00,79.9,79.0,29.98,ESE,104,0.0,0.0,97,0.00,,,0.00,Wunderground v.1.15,2013-09-01 13:14:00,
2013-09-01 09:19:00,80.4,79.5,29.98,ESE,105,0.0,0.0,97,0.00,,,0.00,Wunderground v.1.15,2013-09-01 13:19:00,
2013-09-01 09:24:00,80.4,79.2,29.98,ESE,104,0.0,0.0,96,0.00,,,0.00,Wunderground v.1.15,2013-09-01 13:24:00,
2013-09-01 09:29:00,80.4,79.2,29.98,ESE,105,0.0,0.0,96,0.00,,,0.00,Wunderground v.1.15,2013-09-01 13:29:00,
2013-09-01 09:34:00,80.5,78.9,29.98,ESE,105,0.0,0.0,95,0.00,,,0.00,Wunderground v.1.15,2013-09-01 13:34:00,
2013-09-01 09:39:00,80.6,79.4,29.98,ESE,105,0.0,0.0,96,0.00,,,0.00,Wunderground v.1.15,2013-09-01 13:39:00,
2013-09-01 09:44:00,80.9,79.3,29.98,ESE,105,0.0,0.0,95,0.00,,,0.00,Wunderground v.1.15,2013-09-01 13:44:00,
2013-09-01 09:49:00,81.4,79.8,29.98,ESE,105,0.0,0.0,95,0.00,,,0.00,Wunderground v.1.15,2013-09-01 13:49:00,
2013-09-01 09:54:00,81.7,79.8,29.99,ESE,104,0.0,0.0,94,0.00,,,0.00,Wunderground v.1.15,2013-09-01 13:54:00,
2013-09-01 09:59:00,82.0,80.1,29.99,ESE,103,0.0,0.0,94,0.00,,,0.00,Wunderground v.1.15,2013-09-01 13:59:00,
2013-09-01 10:04:00,82.4,80.2,29.99,East,94,0.0,1.0,93,0.00,,,0.00,Wunderground v.1.15,2013-09-01 14:04:00,
2013-09-01 10:09:00,82.9,80.0,30.00,ENE,76,0.0,1.0,91,0.00,,,0.00,Wunderground v.1.15,2013-09-01 14:09:00,
2013-09-01 10:14:00,83.1,79.9,30.00,ENE,60,0.0,1.0,90,0.00,,,0.00,Wunderground v.1.15,2013-09-01 14:14:00,
2013-09-01 10:20:00,83.6,80.0,30.00,ENE,59,0.0,0.0,89,0.00,,,0.00,Wunderground v.1.15,2013-09-01 14:20:00,
2013-09-01 10:25:00,83.8,79.5,30.00,ENE,57,0.0,2.0,87,0.00,,,0.00,Wunderground v.1.15,2013-09-01 14:25:00,
2013-09-01 10:30:00,84.4,80.1,30.01,ENE,57,0.0,0.0,87,0.00,,,0.00,Wunderground v.1.15,2013-09-01 14:30:00,
2013-09-01 10:35:00,84.9,80.2,30.01,ENE,57,0.0,0.0,86,0.00,,,0.00,Wunderground v.1.15,2013-09-01 14:35:00,
2013-09-01 10:40:00,85.3,80.3,30.01,NE,56,0.0,0.0,85,0.00,,,0.00,Wunderground v.1.15,2013-09-01 14:40:00,
2013-09-01 10:45:00,85.8,80.4,30.00,ENE,65,0.0,1.0,84,0.00,,,0.00,Wunderground v.1.15,2013-09-01 14:45:00,
2013-09-01 10:50:00,86.2,79.7,30.01,ENE,65,0.0,0.0,81,0.00,,,0.00,Wunderground v.1.15,2013-09-01 14:50:00,
2013-09-01 10:55:00,86.7,79.0,30.00,East,91,0.0,1.0,78,0.00,,,0.00,Wunderground v.1.15,2013-09-01 14:55:00,
2013-09-01 11:00:00,87.1,78.6,30.00,East,79,0.0,0.0,76,0.00,,,0.00,Wunderground v.1.15,2013-09-01 15:00:00,
2013-09-01 11:05:00,87.6,78.3,30.01,East,82,1.0,3.0,74,0.00,,,0.00,Wunderground v.1.15,2013-09-01 15:05:00,
2013-09-01 11:10:00,87.9,79.0,30.01,ESE,102,0.0,0.0,75,0.00,,,0.00,Wunderground v.1.15,2013-09-01 15:10:00,
2013-09-01 11:15:00,88.6,79.2,30.00,SE,126,0.0,2.0,74,0.00,,,0.00,Wunderground v.1.15,2013-09-01 15:15:00,
2013-09-01 11:20:00,89.2,79.8,30.00,East,89,0.0,0.0,74,0.00,,,0.00,Wunderground v.1.15,2013-09-01 15:20:00,
2013-09-01 11:25:00,89.6,79.4,30.00,South,177,2.0,3.0,72,0.00,,,0.00,Wunderground v.1.15,2013-09-01 15:25:00,
2013-09-01 11:30:00,90.1,79.4,30.00,SSW,210,0.0,1.0,71,0.00,,,0.00,Wunderground v.1.15,2013-09-01 15:30:00,
2013-09-01 11:35:00,90.8,79.7,30.00,ENE,74,2.0,5.0,70,0.00,,,0.00,Wunderground v.1.15,2013-09-01 15:35:00,
2013-09-01 11:40:00,90.2,79.5,30.00,ESE,107,1.0,1.0,71,0.00,,,0.00,Wunderground v.1.15,2013-09-01 15:40:00,
2013-09-01 11:45:00,89.9,79.2,30.01,ENE,78,5.0,9.0,71,0.00,,,0.00,Wunderground v.1.15,2013-09-01 15:45:00,
2013-09-01 11:50:00,89.2,78.6,30.00,SE,129,2.0,8.0,71,0.00,,,0.00,Wunderground v.1.15,2013-09-01 15:50:00,
2013-09-01 11:55:00,88.4,78.6,30.00,SE,133,2.0,9.0,73,0.00,,,0.00,Wunderground v.1.15,2013-09-01 15:55:00,
2013-09-01 12:00:00,87.7,79.2,30.01,ESE,114,0.0,3.0,76,0.22,,,0.02,Wunderground v.1.15,2013-09-01 16:00:00,
2013-09-01 12:05:00,86.7,78.2,30.01,SSW,211,3.0,3.0,76,0.14,,,0.03,Wunderground v.1.15,2013-09-01 16:05:00,
2013-09-01 12:10:00,85.9,79.4,30.01,East,88,2.0,2.0,81,0.22,,,0.07,Wunderground v.1.15,2013-09-01 16:10:00,
2013-09-01 12:16:00,85.3,79.9,30.01,East,101,0.0,4.0,84,0.07,,,0.07,Wunderground v.1.15,2013-09-01 16:16:00,
2013-09-01 12:21:00,85.4,80.0,30.01,NE,36,3.0,3.0,84,0.05,,,0.07,Wunderground v.1.15,2013-09-01 16:21:00,
2013-09-01 12:26:00,84.7,78.2,30.01,NE,43,0.0,4.0,81,0.00,,,0.07,Wunderground v.1.15,2013-09-01 16:26:00,
2013-09-01 12:31:00,84.7,79.0,30.01,NE,39,0.0,1.0,83,0.00,,,0.07,Wunderground v.1.15,2013-09-01 16:31:00,
2013-09-01 12:36:00,85.2,79.1,30.01,WNW,288,0.0,1.0,82,0.00,,,0.07,Wunderground v.1.15,2013-09-01 16:36:00,
2013-09-01 12:41:00,85.5,79.0,30.02,NE,50,0.0,2.0,81,0.00,,,0.07,Wunderground v.1.15,2013-09-01 16:41:00,
2013-09-01 12:46:00,85.2,78.3,30.02,NNE,22,0.0,5.0,80,0.00,,,0.07,Wunderground v.1.15,2013-09-01 16:46:00,
2013-09-01 12:51:00,84.2,76.6,30.02,North,354,0.0,3.0,78,0.00,,,0.07,Wunderground v.1.15,2013-09-01 16:51:00,
2013-09-01 12:56:00,82.7,75.5,30.02,WNW,294,0.0,4.0,79,0.00,,,0.07,Wunderground v.1.15,2013-09-01 16:56:00,
2013-09-01 13:01:00,81.1,75.1,30.02,WSW,256,2.0,4.0,82,0.00,,,0.07,Wunderground v.1.15,2013-09-01 17:01:00,
2013-09-01 13:06:00,80.3,75.0,30.02,WSW,256,0.0,5.0,84,0.00,,,0.07,Wunderground v.1.15,2013-09-01 17:06:00,
2013-09-01 13:11:00,79.9,75.0,30.02,North,10,0.0,2.0,85,0.00,,,0.07,Wunderground v.1.15,2013-09-01 17:11:00,
2013-09-01 13:16:00,79.9,75.0,30.02,West,278,3.0,3.0,85,0.00,,,0.07,Wunderground v.1.15,2013-09-01 17:16:00,
2013-09-01 13:21:00,79.6,75.4,30.02,WSW,248,4.0,4.0,87,0.00,,,0.07,Wunderground v.1.15,2013-09-01 17:21:00,
2013-09-01 13:26:00,79.5,75.6,30.01,WNW,298,0.0,4.0,88,0.00,,,0.07,Wunderground v.1.15,2013-09-01 17:26:00,
2013-09-01 13:31:00,79.7,75.8,30.01,West,281,2.0,3.0,88,0.00,,,0.07,Wunderground v.1.15,2013-09-01 17:31:00,
2013-09-01 13:36:00,79.8,75.9,30.01,West,268,0.0,4.0,88,0.00,,,0.07,Wunderground v.1.15,2013-09-01 17:36:00,
2013-09-01 13:41:00,79.9,75.7,30.01,West,276,1.0,3.0,87,0.00,,,0.07,Wunderground v.1.15,2013-09-01 17:41:00,
2013-09-01 13:46:00,79.9,75.7,30.01,WNW,293,1.0,5.0,87,0.00,,,0.08,Wunderground v.1.15,2013-09-01 17:46:00,
2013-09-01 13:51:00,79.8,75.9,30.01,West,262,1.0,2.0,88,0.09,,,0.09,Wunderground v.1.15,2013-09-01 17:51:00,
2013-09-01 13:57:00,79.8,75.9,30.00,WNW,286,1.0,4.0,88,0.09,,,0.09,Wunderground v.1.15,2013-09-01 17:57:00,
2013-09-01 14:02:00,80.1,75.9,30.00,WNW,283,0.0,1.0,87,0.05,,,0.09,Wunderground v.1.15,2013-09-01 18:02:00,
2013-09-01 14:07:00,80.5,76.3,30.00,NNW,338,0.0,1.0,87,0.04,,,0.09,Wunderground v.1.15,2013-09-01 18:07:00,
2013-09-01 14:12:00,81.0,76.4,29.99,NNW,338,0.0,0.0,86,0.00,,,0.09,Wunderground v.1.15,2013-09-01 18:12:00,
2013-09-01 14:17:00,81.6,76.3,29.99,West,264,0.0,1.0,84,0.00,,,0.09,Wunderground v.1.15,2013-09-01 18:17:00,
2013-09-01 14:22:00,82.0,76.7,29.99,West,278,0.0,0.0,84,0.00,,,0.09,Wunderground v.1.15,2013-09-01 18:22:00,
2013-09-01 14:27:00,83.2,78.2,29.99,NE,49,0.0,2.0,85,0.00,,,0.09,Wunderground v.1.15,2013-09-01 18:27:00,
2013-09-01 14:32:00,84.5,79.1,29.99,NNE,25,0.0,1.0,84,0.00,,,0.09,Wunderground v.1.15,2013-09-01 18:32:00,
2013-09-01 14:37:00,85.5,78.2,29.99,ENE,68,0.0,2.0,79,0.00,,,0.09,Wunderground v.1.15,2013-09-01 18:37:00,
2013-09-01 14:42:00,86.6,77.7,29.99,East,90,0.0,1.0,75,0.00,,,0.09,Wunderground v.1.15,2013-09-01 18:42:00,
2013-09-01 14:47:00,87.4,78.5,29.98,East,84,0.0,1.0,75,0.00,,,0.09,Wunderground v.1.15,2013-09-01 18:47:00,
2013-09-01 14:52:00,87.8,78.9,29.98,NNE,27,0.0,2.0,75,0.00,,,0.09,Wunderground v.1.15,2013-09-01 18:52:00,
2013-09-01 14:57:00,88.3,79.0,29.99,NE,37,0.0,2.0,74,0.00,,,0.09,Wunderground v.1.15,2013-09-01 18:57:00,
2013-09-01 15:02:00,88.6,78.8,29.99,NE,49,0.0,1.0,73,0.00,,,0.09,Wunderground v.1.15,2013-09-01 19:02:00,
2013-09-01 15:07:00,88.2,78.4,29.99,ESE,104,0.0,3.0,73,0.00,,,0.09,Wunderground v.1.15,2013-09-01 19:07:00,
2013-09-01 15:12:00,87.4,78.1,29.99,SSE,162,0.0,1.0,74,0.00,,,0.09,Wunderground v.1.15,2013-09-01 19:12:00,
2013-09-01 15:17:00,87.1,79.0,29.99,East,79,0.0,1.0,77,0.00,,,0.09,Wunderground v.1.15,2013-09-01 19:17:00,
2013-09-01 15:22:00,86.5,77.6,29.99,SW,233,0.0,0.0,75,0.00,,,0.09,Wunderground v.1.15,2013-09-01 19:22:00,
2013-09-01 15:27:00,86.1,78.0,29.99,SW,218,0.0,0.0,77,0.00,,,0.09,Wunderground v.1.15,2013-09-01 19:27:00,
2013-09-01 15:32:00,85.9,78.2,29.99,East,89,0.0,0.0,78,0.00,,,0.09,Wunderground v.1.15,2013-09-01 19:32:00,
2013-09-01 15:37:00,85.7,78.0,29.98,ESE,105,0.0,1.0,78,0.00,,,0.09,Wunderground v.1.15,2013-09-01 19:37:00,
2013-09-01 15:42:00,85.6,78.3,29.98,SE,132,0.0,3.0,79,0.00,,,0.09,Wunderground v.1.15,2013-09-01 19:42:00,
2013-09-01 15:47:00,85.5,78.2,29.98,East,98,0.0,4.0,79,0.00,,,0.09,Wunderground v.1.15,2013-09-01 19:47:00,
2013-09-01 15:52:00,85.0,77.8,29.98,NE,56,2.0,3.0,79,0.00,,,0.09,Wunderground v.1.15,2013-09-01 19:52:00,
2013-09-01 15:57:00,84.6,78.1,29.99,ESE,115,2.0,3.0,81,0.00,,,0.09,Wunderground v.1.15,2013-09-01 19:57:00,
2013-09-01 16:02:00,84.3,78.6,29.99,East,91,0.0,1.0,83,0.00,,,0.09,Wunderground v.1.15,2013-09-01 20:02:00,
2013-09-01 16:07:00,83.8,78.4,29.99,East,93,0.0,3.0,84,0.00,,,0.09,Wunderground v.1.15,2013-09-01 20:07:00,
2013-09-01 16:12:00,83.5,78.5,29.99,East,94,0.0,0.0,85,0.00,,,0.09,Wunderground v.1.15,2013-09-01 20:12:00,
2013-09-01 16:17:00,83.2,78.2,30.00,East,94,0.0,1.0,85,0.00,,,0.09,Wunderground v.1.15,2013-09-01 20:17:00,
2013-09-01 16:23:00,82.8,77.8,29.99,East,88,0.0,1.0,85,0.00,,,0.09,Wunderground v.1.15,2013-09-01 20:23:00,
2013-09-01 16:28:00,82.4,77.1,29.99,East,88,0.0,1.0,84,0.00,,,0.09,Wunderground v.1.15,2013-09-01 20:28:00,
2013-09-01 16:33:00,82.4,77.4,29.99,West,266,0.0,2.0,85,0.00,,,0.09,Wunderground v.1.15,2013-09-01 20:33:00,
2013-09-01 16:38:00,82.4,77.8,29.98,West,267,0.0,2.0,86,0.00,,,0.09,Wunderground v.1.15,2013-09-01 20:38:00,
2013-09-01 16:43:00,82.5,77.9,29.97,West,267,0.0,0.0,86,0.00,,,0.09,Wunderground v.1.15,2013-09-01 20:43:00,
2013-09-01 16:49:00,82.5,78.2,29.97,West,266,0.0,0.0,87,0.00,,,0.09,Wunderground v.1.15,2013-09-01 20:49:00,
2013-09-01 16:54:00,82.7,78.4,29.97,West,267,0.0,0.0,87,0.00,,,0.09,Wunderground v.1.15,2013-09-01 20:54:00,
2013-09-01 16:59:00,82.8,78.5,29.96,West,267,0.0,0.0,87,0.00,,,0.09,Wunderground v.1.15,2013-09-01 20:59:00,
2013-09-01 17:04:00,82.9,78.3,29.96,WSW,253,1.0,1.0,86,0.00,,,0.09,Wunderground v.1.15,2013-09-01 21:04:00,
2013-09-01 17:09:00,82.7,77.7,29.96,WSW,255,5.0,5.0,85,0.00,,,0.09,Wunderground v.1.15,2013-09-01 21:09:00,
2013-09-01 17:14:00,82.4,76.7,29.95,West,276,4.0,8.0,83,0.00,,,0.09,Wunderground v.1.15,2013-09-01 21:14:00,
2013-09-01 17:19:00,81.9,75.5,29.95,WSW,253,4.0,8.0,81,0.00,,,0.09,Wunderground v.1.15,2013-09-01 21:19:00,
2013-09-01 17:24:00,81.6,75.2,29.95,SSW,211,2.0,5.0,81,0.00,,,0.09,Wunderground v.1.15,2013-09-01 21:24:00,
2013-09-01 17:29:00,81.7,76.0,29.95,WSW,250,4.0,5.0,83,0.00,,,0.09,Wunderground v.1.15,2013-09-01 21:29:00,
2013-09-01 17:34:00,81.5,75.8,29.95,West,264,7.0,8.0,83,0.00,,,0.09,Wunderground v.1.15,2013-09-01 21:34:00,
2013-09-01 17:39:00,81.1,75.1,29.95,SSW,208,4.0,9.0,82,0.00,,,0.09,Wunderground v.1.15,2013-09-01 21:39:00,
2013-09-01 17:44:00,81.0,75.3,29.95,WSW,257,4.0,6.0,83,0.00,,,0.09,Wunderground v.1.15,2013-09-01 21:44:00,
2013-09-01 17:49:00,81.1,75.8,29.95,West,271,1.0,6.0,84,0.00,,,0.09,Wunderground v.1.15,2013-09-01 21:49:00,
2013-09-01 17:54:00,81.2,75.5,29.95,West,278,3.0,4.0,83,0.00,,,0.09,Wunderground v.1.15,2013-09-01 21:54:00,
2013-09-01 17:59:00,81.5,75.8,29.96,WNW,283,2.0,4.0,83,0.00,,,0.09,Wunderground v.1.15,2013-09-01 21:59:00,
2013-09-01 18:04:00,81.7,76.0,29.96,West,276,1.0,5.0,83,0.00,,,0.09,Wunderground v.1.15,2013-09-01 22:04:00,
2013-09-01 18:09:00,82.1,76.4,29.96,SW,234,0.0,5.0,83,0.00,,,0.09,Wunderground v.1.15,2013-09-01 22:09:00,
2013-09-01 18:14:00,82.4,76.3,29.97,West,277,0.0,2.0,82,0.00,,,0.09,Wunderground v.1.15,2013-09-01 22:14:00,
2013-09-01 18:19:00,82.8,76.4,29.96,SW,236,1.0,2.0,81,0.00,,,0.09,Wunderground v.1.15,2013-09-01 22:19:00,
2013-09-01 18:24:00,83.1,76.3,29.97,West,278,0.0,2.0,80,0.00,,,0.09,Wunderground v.1.15,2013-09-01 22:24:00,
2013-09-01 18:29:00,83.2,76.4,29.96,West,273,0.0,2.0,80,0.00,,,0.09,Wunderground v.1.15,2013-09-01 22:29:00,
2013-09-01 18:34:00,83.9,77.1,29.97,NW,316,0.0,0.0,80,0.00,,,0.09,Wunderground v.1.15,2013-09-01 22:34:00,
2013-09-01 18:39:00,84.7,76.7,29.97,WNW,285,3.0,3.0,77,0.00,,,0.09,Wunderground v.1.15,2013-09-01 22:39:00,
2013-09-01 18:45:00,84.4,77.6,29.97,North,350,0.0,5.0,80,0.00,,,0.09,Wunderground v.1.15,2013-09-01 22:45:00,
2013-09-01 18:50:00,84.8,77.9,29.97,West,279,2.0,3.0,80,0.00,,,0.09,Wunderground v.1.15,2013-09-01 22:50:00,
2013-09-01 18:55:00,85.1,78.6,29.97,WNW,290,0.0,3.0,81,0.00,,,0.09,Wunderground v.1.15,2013-09-01 22:55:00,
2013-09-01 19:00:00,85.4,78.5,29.97,NW,311,0.0,0.0,80,0.00,,,0.09,Wunderground v.1.15,2013-09-01 23:00:00,
2013-09-01 19:05:00,85.9,78.6,29.97,West,276,0.0,1.0,79,0.00,,,0.09,Wunderground v.1.15,2013-09-01 23:05:00,
2013-09-01 19:10:00,85.6,78.3,29.97,WNW,286,0.0,0.0,79,0.00,,,0.09,Wunderground v.1.15,2013-09-01 23:10:00,
2013-09-01 19:15:00,85.2,78.7,29.98,WNW,288,0.0,1.0,81,0.00,,,0.09,Wunderground v.1.15,2013-09-01 23:15:00,
2013-09-01 19:20:00,84.5,78.4,29.97,West,270,0.0,1.0,82,0.00,,,0.09,Wunderground v.1.15,2013-09-01 23:20:00,
2013-09-01 19:25:00,83.6,78.2,29.98,WNW,282,2.0,2.0,84,0.00,,,0.09,Wunderground v.1.15,2013-09-01 23:25:00,
2013-09-01 19:30:00,82.7,77.7,29.98,West,270,0.0,1.0,85,0.00,,,0.09,Wunderground v.1.15,2013-09-01 23:30:00,
2013-09-01 19:35:00,82.1,77.8,29.98,West,271,0.0,1.0,87,0.00,,,0.09,Wunderground v.1.15,2013-09-01 23:35:00,
2013-09-01 19:40:00,81.7,77.5,29.98,WNW,290,0.0,0.0,87,0.00,,,0.09,Wunderground v.1.15,2013-09-01 23:40:00,
2013-09-01 19:45:00,81.4,77.5,29.98,West,276,0.0,1.0,88,0.00,,,0.09,Wunderground v.1.15,2013-09-01 23:45:00,
2013-09-01 19:50:00,81.1,77.2,29.98,West,275,0.0,0.0,88,0.00,,,0.09,Wunderground v.1.15,2013-09-01 23:50:00,
2013-09-01 19:55:00,80.9,77.0,29.98,West,276,0.0,0.0,88,0.00,,,0.09,Wunderground v.1.15,2013-09-01 23:55:00,
2013-09-01 20:00:00,80.7,77.2,29.98,West,276,0.0,0.0,89,0.00,,,0.09,Wunderground v.1.15,2013-09-02 00:00:00,
2013-09-01 20:05:00,80.5,77.0,29.98,West,276,0.0,0.0,89,0.00,,,0.09,Wunderground v.1.15,2013-09-02 00:05:00,
2013-09-01 20:10:00,80.3,76.8,29.98,West,276,0.0,0.0,89,0.00,,,0.09,Wunderground v.1.15,2013-09-02 00:10:00,
2013-09-01 20:15:00,80.2,77.0,29.98,West,276,0.0,0.0,90,0.00,,,0.09,Wunderground v.1.15,2013-09-02 00:15:00,
2013-09-01 20:20:00,80.0,76.8,29.98,West,276,0.0,0.0,90,0.00,,,0.09,Wunderground v.1.15,2013-09-02 00:20:00,
2013-09-01 20:25:00,79.9,77.0,29.98,West,276,0.0,0.0,91,0.00,,,0.09,Wunderground v.1.15,2013-09-02 00:25:00,
2013-09-01 20:30:00,80.1,77.6,29.98,West,276,0.0,0.0,92,0.00,,,0.09,Wunderground v.1.15,2013-09-02 00:30:00,
2013-09-01 20:35:00,80.2,77.7,29.98,West,270,0.0,0.0,92,0.00,,,0.09,Wunderground v.1.15,2013-09-02 00:35:00,
2013-09-01 20:40:00,80.1,77.2,29.98,WSW,241,0.0,0.0,91,0.00,,,0.09,Wunderground v.1.15,2013-09-02 00:40:00,
2013-09-01 20:45:00,80.0,77.1,29.98,WSW,242,0.0,0.0,91,0.00,,,0.09,Wunderground v.1.15,2013-09-02 00:45:00,
2013-09-01 20:51:00,79.9,77.4,29.99,WSW,241,0.0,0.0,92,0.00,,,0.09,Wunderground v.1.15,2013-09-02 00:51:00,
2013-09-01 20:56:00,79.7,77.2,29.99,WSW,242,0.0,0.0,92,0.00,,,0.09,Wunderground v.1.15,2013-09-02 00:56:00,
2013-09-01 21:01:00,79.5,77.0,30.00,WSW,242,0.0,0.0,92,0.00,,,0.09,Wunderground v.1.15,2013-09-02 01:01:00,
2013-09-01 21:06:00,79.3,76.8,30.00,WSW,241,0.0,0.0,92,0.00,,,0.09,Wunderground v.1.15,2013-09-02 01:06:00,
2013-09-01 21:11:00,79.5,77.3,30.00,WSW,242,0.0,0.0,93,0.00,,,0.09,Wunderground v.1.15,2013-09-02 01:11:00,
2013-09-01 21:16:00,79.6,77.4,30.00,WSW,242,0.0,0.0,93,0.00,,,0.09,Wunderground v.1.15,2013-09-02 01:16:00,
2013-09-01 21:21:00,79.5,77.3,30.00,WSW,241,0.0,0.0,93,0.00,,,0.09,Wunderground v.1.15,2013-09-02 01:21:00,
2013-09-01 21:26:00,79.4,76.9,30.00,WSW,242,0.0,0.0,92,0.00,,,0.09,Wunderground v.1.15,2013-09-02 01:26:00,
2013-09-01 21:31:00,79.2,76.7,30.00,WSW,242,0.0,0.0,92,0.00,,,0.09,Wunderground v.1.15,2013-09-02 01:31:00,
2013-09-01 21:36:00,79.0,76.5,30.01,WSW,241,0.0,0.0,92,0.00,,,0.09,Wunderground v.1.15,2013-09-02 01:36:00,
2013-09-01 21:41:00,78.7,76.2,30.01,WSW,242,0.0,0.0,92,0.00,,,0.09,Wunderground v.1.15,2013-09-02 01:41:00,
2013-09-01 21:46:00,78.6,76.1,30.00,WSW,242,0.0,0.0,92,0.00,,,0.09,Wunderground v.1.15,2013-09-02 01:46:00,
2013-09-01 21:51:00,78.7,76.5,30.01,WSW,241,0.0,0.0,93,0.00,,,0.09,Wunderground v.1.15,2013-09-02 01:51:00,
2013-09-01 21:56:00,78.5,76.3,30.01,WSW,242,0.0,0.0,93,0.00,,,0.09,Wunderground v.1.15,2013-09-02 01:56:00,
2013-09-01 22:01:00,78.3,76.1,30.01,WSW,241,0.0,0.0,93,0.00,,,0.09,Wunderground v.1.15,2013-09-02 02:01:00,
2013-09-01 22:06:00,78.5,76.6,30.01,WSW,242,0.0,0.0,94,0.00,,,0.09,Wunderground v.1.15,2013-09-02 02:06:00,
2013-09-01 22:11:00,78.5,76.6,30.01,WSW,242,0.0,0.0,94,0.00,,,0.09,Wunderground v.1.15,2013-09-02 02:11:00,
2013-09-01 22:16:00,78.5,76.6,30.01,WSW,241,0.0,0.0,94,0.00,,,0.09,Wunderground v.1.15,2013-09-02 02:16:00,
2013-09-01 22:21:00,78.5,76.6,30.01,WSW,242,0.0,0.0,94,0.00,,,0.09,Wunderground v.1.15,2013-09-02 02:21:00,
2013-09-01 22:26:00,78.5,76.6,30.01,WSW,241,0.0,0.0,94,0.00,,,0.09,Wunderground v.1.15,2013-09-02 02:26:00,
2013-09-01 22:31:00,78.5,76.6,30.02,WSW,242,0.0,0.0,94,0.00,,,0.09,Wunderground v.1.15,2013-09-02 02:31:00,
2013-09-01 22:36:00,78.7,76.8,30.02,WSW,242,0.0,0.0,94,0.00,,,0.09,Wunderground v.1.15,2013-09-02 02:36:00,
2013-09-01 22:41:00,78.6,76.7,30.01,WSW,242,0.0,0.0,94,0.00,,,0.09,Wunderground v.1.15,2013-09-02 02:41:00,
2013-09-01 22:46:00,78.4,76.5,30.02,WSW,242,0.0,0.0,94,0.00,,,0.09,Wunderground v.1.15,2013-09-02 02:46:00,
2013-09-01 22:51:00,78.3,76.4,30.02,WSW,241,0.0,0.0,94,0.00,,,0.09,Wunderground v.1.15,2013-09-02 02:51:00,
2013-09-01 22:56:00,78.3,76.4,30.02,WSW,242,0.0,0.0,94,0.00,,,0.09,Wunderground v.1.15,2013-09-02 02:56:00,
2013-09-01 23:01:00,78.3,76.4,30.01,WSW,242,0.0,0.0,94,0.00,,,0.09,Wunderground v.1.15,2013-09-02 03:01:00,
2013-09-01 23:06:00,78.2,76.6,30.01,WSW,241,0.0,0.0,95,0.00,,,0.09,Wunderground v.1.15,2013-09-02 03:06:00,
2013-09-01 23:11:00,78.2,76.6,30.01,WSW,242,0.0,0.0,95,0.00,,,0.09,Wunderground v.1.15,2013-09-02 03:11:00,
2013-09-01 23:16:00,78.1,76.6,30.02,WSW,241,0.0,0.0,95,0.00,,,0.09,Wunderground v.1.15,2013-09-02 03:16:00,
2013-09-01 23:21:00,78.0,76.5,30.02,WSW,242,0.0,0.0,95,0.00,,,0.09,Wunderground v.1.15,2013-09-02 03:21:00,
2013-09-01 23:26:00,78.0,76.5,30.01,WSW,242,0.0,0.0,95,0.00,,,0.09,Wunderground v.1.15,2013-09-02 03:26:00,
2013-09-01 23:31:00,78.0,76.5,30.02,WSW,241,0.0,0.0,95,0.00,,,0.09,Wunderground v.1.15,2013-09-02 03:31:00,
2013-09-01 23:36:00,78.1,76.6,30.01,WSW,242,0.0,0.0,95,0.00,,,0.09,Wunderground v.1.15,2013-09-02 03:36:00,
2013-09-01 23:41:00,78.0,76.5,30.01,WSW,242,0.0,0.0,95,0.00,,,0.09,Wunderground v.1.15,2013-09-02 03:41:00,
2013-09-01 23:46:00,78.0,76.5,30.01,WSW,242,0.0,0.0,95,0.00,,,0.09,Wunderground v.1.15,2013-09-02 03:46:00,
2013-09-01 23:51:00,77.9,76.4,30.02,WSW,242,0.0,0.0,95,0.00,,,0.09,Wunderground v.1.15,2013-09-02 03:51:00,
2013-09-01 23:56:00,77.9,76.4,30.01,WSW,242,0.0,0.0,95,0.00,,,0.09,Wunderground v.1.15,2013-09-02 03:56:00,